This demonstration page uses our WeatherBlox Daily Observations layout. Learn more.

Left ArrowRight Arrow

39.08367, -84.50855

Hourly Observations for May 9, 2020

Temp ( °F °C ) Dew Point ( °F °C ) Humidity (%) Winds ( mph kmh ) Pressure ( in mb ) Visibility ( mi km ) Precip ( " mm )
12:53 am 00:53 Clear 36 2.2 15 -9.4 42 42 NNW 5 7 30.16 1021 10 16.0934 0 0
1:53 am 01:53 Clear 33 0.6 21 -6.1 61 61 Calm 30.17 1022 10 16.0934 0 0
2:53 am 02:53 Clear 31 -0.6 24 -4.4 76 76 Calm 30.17 1022 10 16.0934 0 0
3:53 am 03:53 Clear 31 -0.6 24 -4.4 76 76 Calm 30.18 1022 10 16.0934 0 0
4:53 am 04:53 Clear 32 0 18 -7.8 56 56 NNW 6 9 30.19 1023 10 16.0934 0 0
5:53 am 05:53 Clear 29 -1.7 23 -5 78 78 S 3 6 30.21 1023 10 16.0934 0 0
6:53 am 06:53 Sunny 29 -1.7 24 -4.4 82 82 Calm 30.22 1023 10 16.0934 0 0
7:53 am 07:53 Sunny 35 1.7 19 -7.2 52 52 W 7 11 30.23 1024 10 16.0934 0 0
8:53 am 08:53 Sunny 40 4.4 19 -7.2 43 43 W 8 13 30.25 1024 10 16.0934 0 0
9:53 am 09:53 Sunny 43 6.1 18 -7.8 37 37 W 10 17 30.27 1025 10 16.0934 0 0
10:53 am 10:53 Sunny 46 7.8 20 -6.7 35 35 WNW 8 13 30.28 1025 10 16.0934 0 0
11:53 am 11:53 Mostly Sunny 49 9.4 22 -5.6 35 35 W 17 28 30.29 1026 10 16.0934 0 0
12:53 pm 12:53 Mostly Sunny 50 10 21 -6.1 32 32 WNW 14 22 30.27 1025 10 16.0934 0 0
1:53 pm 13:53 Mostly Sunny 51 10.6 23 -5 33 33 WNW 8 13 30.27 1025 10 16.0934 0 0
2:53 pm 14:53 Sunny 53 11.7 23 -5 31 31 NW 5 7 30.25 1025 10 16.0934 0 0
3:53 pm 15:53 Sunny 54 12.2 25 -3.9 33 33 NNW 14 22 30.23 1024 10 16.0934 0 0
4:53 pm 16:53 Sunny 54 12.2 23 -5 30 30 WSW 10 17 30.21 1023 10 16.0934 0 0
5:53 pm 17:53 Sunny 54 12.2 22 -5.6 29 29 W 7 11 30.21 1023 10 16.0934 0 0
6:53 pm 18:53 Sunny 53 11.7 25 -3.9 34 34 W 5 7 30.19 1023 10 16.0934 0 0
7:53 pm 19:53 Sunny 51 10.6 24 -4.4 35 35 W 8 13 30.2 1023 10 16.0934 0 0
8:53 pm 20:53 Clear 46 7.8 29 -1.7 51 51 Calm 30.22 1023 10 16.0934 0 0
9:53 pm 21:53 Clear 42 5.6 33 0.6 71 71 Calm 30.24 1024 10 16.0934 0 0
10:53 pm 22:53 Clear 40 4.4 32 0 73 73 Calm 30.25 1024 10 16.0934 0 0
11:53 pm 23:53 Clear 38 3.3 33 0.6 83 83 Calm 30.24 1024 10 16.0934 0 0

Powered by AerisWeather